SL-14 DEB, 45301

Orbit data source: Space-Track

SL-14 DEB, 45301 is space debris in LEO originally from a launch on Thu, 15 Aug 1991 UTC launched from the Plesetsk Missile And Space Complex (PKMTR). Debris objects in space refer to the collection of defunct objects orbiting the Earth. Examples of debris include non-operational satellites, rocket bodies, and fragments generated from explosions, collisions, or faulty payload assembly.

Loading next visibility...
Identifier
45301, 1991-056AP
Orbit
LEO
Last TLE update
3 hours ago
Origin
Manufacturer
Unknown
Mission
Spacecraft
Bus & Motor
Unknown
Mass
Unknown
Launch date (UTC)
1991-08-15 (34 years ago)
Launch vehicle
Unknown
Launch site
Plesetsk Missile And Space Complex (PKMTR)
Object type
Payload
Rocket body
Debris
Shape & HBR
Unknown
Radar Cross Section
Medium (>0.1 m² and <1 m²)

Expand to show TLE details & history

TLE from 3 hours ago
0 SL-14 DEB
1 45301U 91056AP  25199.21447590  .00008148  00000-0  99079-2 0  9999
2 45301  82.4894 277.9210 0176640 212.0449 146.9863 13.59572513266006
Epoch: 2025-07-18T05:08Z
TLE epoch observation values (Epoch: 2025-07-18T05:08:50.717Z)
Latitude
-0.00004°
Longitude
-95.55947°
Altitude
1,150.641 km
Speed
7.223 km/s
True Right ascension
18h 31m 41s
True Declination
0° 00' 00"
Sunlit
Object was in full shadow at epoch
Visualization orbit readout
Latitude
0.71628°
Longitude
84.26162°
Altitude
928.964 km
Speed
7.442 km/s
Apparent Right ascension
07h 19m 44s
Apparent Declination
-18° 39' 08"
Sunlit
Object is in daylight
Visualization observer readout
Local Sidereal Time
20:33:12
Azimuth
41.985° NE
Elevation
-63.497°
Doppler factor
1
Orbital elements
Apogee altitude
1,165.368 km
Perigee altitude
903.497 km
Semi-major axis
7,412.57 km
Eccentricity
0.01766
Inclination
82.4894°
RAAN
277.921°
Arg. of periapsis
212.0449°
True anomaly
148.06901°
Mean anomaly
146.9863°
Eccentric anomaly
147.52964°
Mean motion
3.40087 °/min
Orbital period
105.86 mins
BSTAR
0.0099079
Loading maneuver chart data...
Loading SW <> Apogee altitude chart data...
Loading historical data...
Loading historical data...
Loading historical data...
Loading historical data...
Loading historical data...
Loading historical data...
Loading historical data...
|